www.pogodaiklimat.ru

Погода и климат >> Архив погоды >> Киргизия >> Яны-Жер


ПОГОДА в Яны-Жере

  • Прогноз погоды в Яны-Жере
  • Монитор погоды в Яны-Жере

АРХИВ ПОГОДЫ в Яны-Жере

Время (UTC), дата Ветер
(напр.,м/с)
 
Видим.   Явления Облачность Т
(С)
Тd
(С)
f
(%)
Тe
(С)
Тes
(С)
Комфортность P
(гПа)
Po
(гПа)
Тmin
(С)
Tmax
(С)
R
(мм)
R24
(мм)
S
(см)
00 11.06 штиль 0 4000 м дымка 10/3 600 м
[Cb calv Ac trans Ci sp]
+9.5 +8.9 96 +9 +9 1020.3 949.8
03 11.06 штиль 0 20 км 4/1 1000 м
[Cu hum Ac trans Ci fib]
+15.0 +10.9 76 +15 +23 1018.8 949.6 +9.2
06 11.06 штиль 0 20 км 10/6 600 м
[Cb calv Ac trans Ci sp]
+20.8 +9.4 48 +22 +27 комфорт 1016.6 948.9 +9.2
09 11.06 штиль 0 50 км 10/4 600 м
[Cb calv Ac trans Ci fib]
+22.6 +7.7 38 +24 +30 комфорт 1015.1 947.9
12 11.06 СЗ 3 20 км в посл. час гроза 10/3 600 м
[Cb cap Ac trans Ci sp]
+22.7 +7.8 38 +24 +25 комфорт 1014.9 947.7
15 11.06 штиль 0 20 км 8/4 600 м
[Cb calv Ac trans]
+17.7 +10.0 61 +18 +18 1017.4 948.9 +22.9
18 11.06 ЮВ 1 н/о 6/0
[Ac trans]
+14.8 +9.2 69 +15 +15 1017.8 948.6 +22.9
21 11.06 Ю 2 н/о 3/0
[Ac trans]
+13.7 +8.9 73 +13 +13 1016.9 947.5
00 12.06 штиль 0 50 км 4/3 1000 м
[Cu med, cong Ac trans]
+11.7 +8.0 78 +11 +11 1017.2 947.3
03 12.06 штиль 0 50 км 8/0
[Ac trans Ci fib]
+19.1 +10.2 56 +20 +27 1015.5 947.4 +11.3
06 12.06 СЗ 3 50 км 10/6 600 м
[Cb calv Ac trans Ci sp]
+22.1 +8.0 40 +23 +26 комфорт 1015.3 948.0 +11.3
09 12.06 С 2 50 км 10/8 600 м
[Cb calv Ac trans Ci sp]
+20.4 +7.8 44 +22 +24 комфорт 1015.7 948.0
12 12.06 Ю 2 20 км 10/8 600 м
[Cb cap Ac trans Ci sp]
+21.3 +8.9 45 +23 +23 комфорт 1015.1 947.5
15 12.06 штиль 0 20 км 10/6 600 м
[Cb cap Ac trans Ci sp]
+18.5 +11.2 62 +19 +19 1016.0 947.8 +23.3
18 12.06 ЮВ 1 н/о 8/0
[Ac trans Ci sp]
+17.4 +10.5 64 +18 +18 1015.1 946.8 +23.3
21 12.06 ЮВ 2 н/о 8/0
[Ac trans Ci sp]
+17.6 +9.2 58 +18 +18 1014.4 946.1
00 13.06 ЮВ 1 50 км 3/0
[Ac trans]
+17.6 +7.6 52 +19 +19 1014.0 945.7
03 13.06 штиль 0 50 км 3/0
[Ac trans]
+22.9 +8.9 41 +24 +33 комфорт 1010.8 944.0 +17.2
06 13.06 штиль 0 50 км ясно +28.1 +8.4 29 +28 +53 опасность
солнечного
удара
1007.9 942.3 +17.2
09 13.06 З 5 20 км 4/4 1000 м
[Cu med, cong]
+30.0 +4.5 20 +28 +33 жарко 1007.3 942.1
12 13.06 штиль 0 20 км 6/3 1000 м
[Cu med, cong Ac trans Ci fib]
+28.7 +8.8 29 +28 +32 жарко 1006.9 941.5
15 13.06 штиль 0 20 км 4/0
[Ac trans Ci sp]
+23.4 +13.6 54 +27 +27 душно 1008.1 941.6 +30.5
18 13.06 штиль 0 н/о ясно +17.9 +12.1 69 +18 +18 1009.1 941.2 +30.5
21 13.06 штиль 0 н/о ясно +15.9 +10.3 69 +16 +16 1008.2 940.0
00 14.06 штиль 0 20 км ясно +14.7 +9.7 72 +14 +15 1009.3 940.7
03 14.06 штиль 0 20 км ясно +23.6 +10.2 43 +25 +35 комфорт 1004.6 938.2 +14.5
06 14.06 штиль 0 50 км 1/1 600 м
[Cu med, cong]
+30.5 +9.9 28 +30 +53 опасность
солнечного
удара
1002.6 937.9 +14.5
09 14.06 штиль 0 50 км 4/4 600 м
[Cu med, cong]
+32.1 +8.8 24 +31 +44 жарко 1000.8 936.5
12 14.06 З 2 20 км 10/8 600 м
[Cb calv Ac trans Ci fib]
+27.3 +9.2 32 +27 +28 жарко 1002.1 936.8
15 14.06 штиль 0 20 км {гроза, ливн. осадки} 10/4 600 м
[Cb cap Ac trans Ci fib]
+20.8 +10.7 52 +22 +22 комфорт 1005.9 939.0 +33.4 0.0
18 14.06 ЮВ 1 н/о {гроза, ливн. осадки} 4/0
[Ac trans]
+18.9 +10.2 57 +21 +21 комфорт 1007.2 939.7 +33.4
21 14.06 ЮВ 4 н/о 6/0
[Ac trans Ci fib]
+19.3 +9.8 54 +20 +20 1005.0 937.8
00 15.06 штиль 0 50 км 3/0
[Ac trans]
+16.8 +9.3 61 +17 +17 1005.2 937.3
03 15.06 ЮВ 1 50 км 8/3 1000 м
[Cu med, cong Ac trans Ci fib]
+25.5 +9.5 36 +26 +30 жарко 1002.9 937.1 +16.1
06 15.06 штиль 0 50 км 10/3 1000 м
[Cu med, cong Ac trans Ci fib]
+28.9 +11.7 34 +30 +38 жарко 1003.1 938.0 +16.1
09 15.06 З 1 20 км 10/10 600 м
[Cb calv]
+25.8 +9.9 37 +27 +27 жарко 1005.1 939.2
12 15.06 штиль 0 20 км 10/10 600 м
[Cb calv]
+25.7 +11.4 41 +27 +27 жарко 1005.5 939.6
15 15.06 штиль 0 20 км 10/10 600 м
[Cb calv]
+21.7 +9.9 47 +23 +23 комфорт 1009.1 942.1 +29.5
18 15.06 ЮВ 2 н/о {ливн. осадки} 8/6 600 м
[Cb calv Ac trans Ci sp]
+17.7 +11.3 66 +18 +18 1009.8 941.9 +29.5
00 16.06 штиль 0 20 км 8/5 600 м
[Cb calv Ci fib]
+14.7 +10.7 77 +14 +15 1008.4 940.0
03 16.06 штиль 0 50 км 8/4 600 м
[Cb calv Ac trans Ci fib]
+19.6 +13.3 67 +21 +25 комфорт 1008.6 941.2 +14.3 0.3
06 16.06 СЗ 4 50 км 8/3 600 м
[Cb calv Ac trans Ci sp]
+23.5 +11.0 45 +25 +31 комфорт 1008.2 941.6 +14.3
09 16.06 СЗ 2 50 км 8/3 600 м
[Sc diur, vesp Ac trans Ci sp]
+26.4 +6.1 27 +26 +33 жарко 1007.8 941.8
12 16.06 штиль 0 50 км 8/4 600 м
[Sc diur, vesp Ac trans Ci sp]
+26.9 +6.8 28 +26 +29 жарко 1008.0 942.1
15 16.06 штиль 0 50 км 8/8 600 м
[Sc diur, vesp]
+21.7 +9.7 46 +23 +23 комфорт 1009.0 942.0 +27.5
18 16.06 штиль 0 н/о 3/0
[Ac trans]
+16.2 +9.5 64 +16 +16 1010.1 941.8 +27.5
03 17.06 штиль 0 50 км 4/0
[Ac trans]
+21.7 +9.2 45 +23 +31 комфорт 1008.9 941.9 +12.6
15 17.06 штиль 0 20 км 6/0
[Ac trans]
+23.5 +10.5 44 +25 +25 комфорт 1006.8 940.3 +30.7

 

Местоположение метеостанции Яны-Жер (Чуйская область, Киргизия): широта 43.00 долгота 74.00 высота над уровнем моря 750 м.

В архиве по умолчанию представлена погода в Яны-Жере за последнюю неделю. Архивные данные за месяц целиком и за предыдущие месяцы, начиная с января 2011 года, Вы можете получить, выбрав интересующий диапазон дат из раскрывающегося списка и нажав кнопку "Ввод!".


*Определитесь, кто Вы:
робот инопланетянин человек

Внимание! Время в таблицах - всемирное. Для получения местного времени необходимо прибавить поправку, которая равна 5 ч.

Смотрите также архив погоды в соседних городах и на ближайших метеорологических станциях:

Погода в Кара-Балте (Чуйская область, Киргизия) (27 км)
Погода в Бериктасе (Жамбылская область, Казахстан) (44 км)
Погода в Бишкеке (город Бишкек, Киргизия) (46 км)
Погода в Тео-Ашуу (Чуйская область, Киргизия) (56 км)
Погода в Байтике (Чуйская область, Киргизия) (56 км)
Погода в Мерке (Жамбылская область, Казахстан) (69 км)
Погода в Иссык-Ате (город Бишкек, Киргизия) (73 км)
Погода в Толе Би (Жамбылская область, Казахстан) (80 км)
Погода в Кордае (Жамбылская область, Казахстан) (88 км)
Погода в Сусамыре (Чуйская область, Киргизия) (95 км)

Пояснения к столбцам:

Ветер - указаны скорость ветра в м/с - средняя за 10 мин, порывы в срок и между сроками (в фигурных скобках) и направление, откуда дует ветер: С - северный, СВ - северо-восточный, В - восточный, ЮВ - юго-восточный, Ю - южный, ЮЗ - юго-западный, З - западный, СЗ - северо-западный.
Видимость - горизонтальная дальность видимости в метрах или километрах. При видимости от 1 до 10 км при отсутствии осадков обычно наблюдается дымка, при ухудшении видимости до 1 км и менее - туман. В сухую погоду видимость может ухудшаться дымом, пылью или мглою.
Явления - указаны атмосферные явления, наблюдавшиеся в срок или в последний час перед сроком; фигурными скобками обозначены явления, наблюдавшиеся между сроками (за 1-3 часа до срока); квадратными скобками обозначены град или гололедные отложения с указанием их диаметра в мм.
Облачность - указаны через наклонную черту общая и нижняя облачность в баллах и высота нижней границы облаков в метрах; квадратными скобками обозначены формы облаков: Ci - перистые, Cs - перисто-слоистые, Cc - перисто-кучевые, Ac - высококучевые, As - высокослоистые, Sc - слоисто-кучевые, Ns - слоисто-дождевые, Cu - кучевые, Cb - кучево-дождевые. Подробнее классификацию облаков см. в Атласе облаков (PDF).
T - Температура воздуха - температура, измеренная на высоте 2 м над землей.
Td - Температура точки росы - температура, при понижении до которой содержащийся в воздухе водяной пар достигнет насыщения.
f - Относительная влажность воздуха - влажноcть воздуха, измеренная на высоте 2 м над землей.
Te - Эффективная температура - температура, которую ощущает одетый по сезону человек в тени. Характеристика душности погоды. При расчете учитывается влияние влажности воздуха и скорости ветра на теплоощущения человека.
Tes - Эффективная температура на солнце - температура, которую ощущает человек, с поправкой на солнечный нагрев. Характеристика знойности погоды. Зависит от высоты солнца над горизонтом, облачности и скорости ветра. Ночью, в пасмурную погоду, а также при ветре 12 м/с и более поправка равна нулю.
P - Атмосферное давление - приведенное к уровню моря атмосферное давление.
Po - Атмосферное давление - измеренное на уровне метеостанции атмосферное давление.
Tmin - Минимальная температура - минимум температуры воздуха на высоте 2 м над землей.
Tmax - Максимальная температура - максимум температуры воздуха на высоте 2 м над землей.
R - Количество осадков - Количество выпавших осадков за период времени, мм. При наведении курсора мыши на число - период времени, за который выпало указанное количество осадков.
R24 - Количество осадков - Количество выпавших осадков за 24 часа, мм.
S - Снежный покров - Высота снежного покрова, см. При наведении курсора мыши на число - состояние снежного покрова и степень покрытия местности в баллах.